DW7214 Weather Reports


time (UTC)temp
C
wind
direction
speed
KPH
gust
KPH
rain 1hr
cm
rain 24hr
cm
rain mn
cm
humidity
%
barometer
mb
20260904083032 11 238 0.0 0.0 0.00 2.29 0.00 94 1010.7
20260904081514 11 234 0.0 4.8 0.00 2.29 0.00 95 1010.8
20260904080024 11 234 1.6 4.8 0.00 2.29 0.00 95 1010.7
20260904074530 12 230 0.0 0.0 0.00 2.29 0.00 95 1010.8
20260904073034 12 242 0.0 0.0 0.00 2.29 0.00 95 1010.8
20260904071530 12 232 0.0 0.0 0.00 2.29 0.00 95 1010.8
20260904070016 12 234 0.0 0.0 0.00 2.29 0.00 95 1010.7
20260904064520 12 232 0.0 0.0 0.00 2.29 2.29 95 1010.6
20260904063028 12 226 0.0 0.0 0.00 2.29 2.29 95 1010.6
20260904061529 12 233 0.0 0.0 0.00 2.29 2.29 95 1010.7
20260904060031 12 231 0.0 1.6 0.00 2.29 2.29 95 1010.7
20260904054518 12 234 0.0 3.2 0.00 2.29 2.29 95 1010.8
20260904053023 12 227 1.6 3.2 0.00 2.29 2.29 95 1010.8
20260904051532 12 234 0.0 3.2 0.00 2.29 2.29 95 1010.9
20260904050037 12 236 0.0 3.2 0.00 2.29 2.29 94 1010.9
20260904044541 12 229 0.0 0.0 0.00 2.29 2.29 94 1010.9
20260904043018 12 270 0.0 0.0 0.00 2.29 2.29 94 1010.9
20260904041506 12 239 0.0 0.0 0.00 2.29 2.29 94 1010.8
20260904040008 12 238 0.0 0.0 0.03 2.29 2.29 94 1010.8
20260904034511 12 238 0.0 0.0 0.03 2.29 2.29 93 1010.7
20260904033020 12 238 0.0 0.0 0.10 2.29 2.29 93 1010.5
20260904031504 12 9 0.0 0.0 0.18 2.29 2.29 92 1010.4
20260904030005 13 9 0.0 0.0 0.20 2.26 2.26 91 1010.3
20260904024510 13 9 0.0 3.2 0.28 2.26 2.26 90 1010.2
20260904023013 13 40 0.0 0.0 0.23 2.18 2.18 91 1010.2
20260904021518 13 40 0.0 0.0 0.15 2.11 2.11 91 1010.1
20260904020004 13 40 0.0 0.0 0.10 2.06 2.06 91 1010.1
20260904014506 13 40 0.0 0.0 0.05 1.98 1.98 89 1010.0
20260904013012 14 40 0.0 3.2 0.05 1.96 1.96 90 1010.0
20260904011516 14 51 1.6 6.4 0.05 1.96 1.96 89 1009.9
20260904010024 14 37 1.6 6.4 0.08 1.96 1.96 89 1010.1
20260904004505 14 280 0.0 0.0 0.08 1.93 1.93 90 1010.0
20260904003008 14 280 0.0 0.0 0.05 1.91 1.91 89 1010.0
20260904001515 14 90 0.0 0.0 0.05 1.91 1.91 89 1010.1
20260904000020 14 121 0.0 0.0 0.03 1.88 1.88 86 1010.3
20260903234528 14 194 0.0 3.2 0.00 1.85 1.85 85 1010.3
20260903233008 14 180 0.0 3.2 0.00 1.85 1.85 86 1010.2
20260903231511 14 57 1.6 4.8 0.00 1.85 1.85 84 1010.3
20260903230022 14 36 0.0 4.8 0.03 1.88 1.85 87 1010.3
20260903224523 13 108 0.0 4.8 0.03 1.88 1.85 88 1010.4
20260903223005 13 34 0.0 4.8 0.08 1.88 1.85 89 1010.6
20260903221508 13 37 1.6 4.8 0.10 1.88 1.85 90 1010.7
20260903220022 13 65 0.0 4.8 0.08 1.88 1.83 90 1010.7
20260903214525 13 118 1.6 8.0 0.10 1.88 1.83 88 1010.7
20260903213030 13 87 1.6 6.4 0.05 2.06 1.78 88 1010.5
20260903211509 14 153 0.0 4.8 0.03 2.11 1.75 89 1010.6
20260903210014 14 57 0.0 8.0 0.03 2.11 1.75 90 1010.5
20260903204517 13 257 1.6 9.7 0.08 2.08 1.73 89 1010.7
20260903203027 14 121 3.2 12.9 0.23 2.08 1.73 88 1010.7
20260903201532 13 38 1.6 6.4 0.33 2.08 1.73 1010.6
20260903200033 13 96 1.6 6.4 0.48 2.08 1.73 90 1010.6
20260903194533 13 113 0.0 9.7 0.46 2.01 1.65 92 1010.7
20260903193030 13 117 0.0 11.3 0.30 1.85 1.47 92 1010.6
20260903191544 13 109 3.2 8.0 0.20 1.78 1.40 91 1010.6
20260903190030 14 214 3.2 16.1 0.05 1.65 1.24 87 1010.8
20260903184513 15 146 6.4 14.5 0.00 1.60 1.19 86 1010.4
20260903183033 14 38 0.0 12.9 0.00 1.65 1.19 87 1010.4
20260903181528 13 44 1.6 9.7 0.00 1.85 1.19 89 1010.6
20260903180036 14 188 4.8 16.1 0.00 1.93 1.19 88 1010.5
20260903174520 14 146 3.2 8.0 0.00 1.93 1.19 88 1010.4
20260903173018 14 9 1.6 6.4 0.00 1.96 1.19 90 1010.4
20260903171528 13 161 3.2 12.9 0.03 2.06 1.19 91 1010.3
20260903170031 13 111 1.6 9.7 0.10 2.13 1.19 91 1010.3
20260903164530 13 98 1.6 8.0 0.13 2.18 1.19 93 1010.4
20260903163019 13 77 0.0 4.8 0.15 2.29 1.19 94 1010.6
20260903161533 12 109 1.6 3.2 0.25 2.36 1.17 94 1010.7
20260903160027 12 186 0.0 12.9 0.25 2.39 1.09 93 1011.0
20260903154533 12 111 0.0 4.8 0.28 2.41 1.07 94 1011.0
20260903153030 12 215 0.0 6.4 0.36 2.41 1.04 94 1011.0
20260903151522 12 103 1.6 9.7 0.25 2.29 0.91 94 1011.0
20260903150029 12 135 1.6 6.4 0.18 2.21 0.84 94 1010.9
20260903144530 12 120 4.8 17.7 0.15 2.16 0.79 93 1010.8
20260903143038 12 90 3.2 16.1 0.08 2.06 0.69 94 1010.5
20260903141532 12 134 1.6 9.7 0.05 2.03 0.66 94 1010.2
20260903140026 12 76 1.6 8.0 0.10 2.03 0.66 94 1010.2
20260903134528 12 188 0.0 6.4 0.10 2.01 0.64 94 1010.1
20260903133031 12 168 3.2 9.7 0.13 1.98 0.61 94 1010.0
20260903131536 12 114 3.2 12.9 0.20 1.98 0.61 94 1009.8
20260903130024 12 95 0.0 4.8 0.38 1.93 0.56 94 1009.9
20260903124547 12 90 1.6 9.7 0.41 1.91 0.53 94 1009.9
20260903123029 12 124 1.6 6.4 0.41 1.85 0.48 93 1010.0
20260903121533 12 105 0.0 14.5 0.36 1.78 0.41 93 1010.2
20260903120024 12 119 0.0 9.7 0.18 1.55 0.18 93 1010.2
20260903114526 12 115 0.0 4.8 0.13 1.47 0.13 93 1010.2
20260903113032 12 181 1.6 11.3 0.08 1.45 0.08 92 1010.2
20260903111532 12 148 1.6 12.9 0.05 1.42 0.05 92 1010.2
20260903110019 12 148 1.6 9.7 0.00 1.37 0.00 92 1010.2
20260903104527 12 169 3.2 12.9 0.00 1.37 0.00 92 1010.0
20260903103030 12 175 6.4 16.1 0.00 1.37 0.00 91 1010.1
20260903101535 12 119 1.6 8.0 0.00 1.37 0.00 91 1010.2
20260903100023 12 173 0.0 11.3 0.00 1.37 0.00 91 1010.1
20260903094524 12 160 3.2 11.3 0.00 1.37 0.00 91 1010.1
20260903093004 12 5 1.6 9.7 0.00 1.37 0.00 92 1010.1
20260903091512 12 205 0.0 9.7 0.00 1.37 0.00 92 1010.2
20260903090011 12 166 1.6 8.0 0.00 1.37 0.00 91 1010.2
20260903084520 12 96 3.2 14.5 0.00 1.37 0.00 92 1010.4